YAOGAN-35 03B (53318 NORAD) Tracking and Keplerian Element Data

This shows tracking and keplerian element data for the satellite.

Feedback or suggestion? Click here.




ElementValue
Catalog53318
NameYAOGAN-35 03B
Epoch Orbit906
Epoch Day270.01281686
Epoch Year2022
RAAN110.7654
Inclination34.9956
Eccentricity0.000469
Argument of Perigee350.0197
Mean Anonmoly138.3858
Mean Motion15.22898222
Decay Rate6.801E-05
L11 53318U 22088C 22270.01281686 .00006801 00000+0 28438-3 0 9997
L22 53318 34.9956 110.7654 0004690 350.0197 138.3858 15.22898222 9068

Live tracking and technical data element details for YAOGAN-35 03B (NORAD 53318). YAOGAN-35 03B can be tracked NOW for your location showing map with azimuth and elevation plus other details from your city location.

Track the satellite on the map from your city or location and see movement details for azimuth, elevation, latitude, longitude, range, height, and movement on the map or in text.







IsCatalogInMostPopularTable: catalog: 53318, numindb: 5
Update: records affected: 1



GetName: 53318 YAOGAN-35 03B

Hit Count: updated at: Fri, 30 Sep 2022 03:04:31 GMT